(296006) = 2004 CG82 = 2007 XV21 = 2008 YL109

Discovered at Kitt Peak on 2008-12-29 by Spacewatch.

Orbit

Orbit type: Main Belt

Note: WebGL enabled browser required.

epoch2023-02-25.0
epoch JD2460000.5
perihelion date2021-10-18.25423
perihelion JD2459505.75423
argument of perihelion (°)148.74979
ascending node (°)283.64402
inclination (°)2.33742
eccentricity0.0720008
perihelion distance (AU)2.5780977
Tisserand w.r.t. Jupiter3.3
ΔV w.r.t. Earth (km/sec)10.1
semimajor axis (AU)2.7781249
mean anomaly (°)105.30725
mean daily motion (°/day)0.21285130
aphelion distance (AU)2.978
period (years)4.63
P-vector [x]0.30205346
P-vector [y]0.86599578
P-vector [z]0.39851601
Q-vector [x]-0.95246674
Q-vector [y]0.29153669
Q-vector [z]0.08839378
absolute magnitude16.41
phase slope0.15
uncertainty0
referenceMPO 745323
observations used377
oppositions15
arc length (days)7547
first opposition used2002
last opposition used2023
residual rms (arc-secs)0.76
perturbers coarse indicatorM-v
perturbers precise indicator003Ek
first observation date used2002-10-11.0
last observation date used2023-06-10.0
computer nameMPCLINUX
JD of orbit computation2456819.398980
perihelion JD uncertainty (days)2.1434E-04
argument of perihelion uncertainty (°)1.5134E-04
ascending node uncertainty (°)1.4510E-04
inclination uncertainty (°)5.3403E-06
eccentricity uncertainty 7.3833E-08
perihelion distance uncertainty (AU)2.0374E-07
Minimum Orbit Intersection Distances (in AU)
for orbit epoch: 2460000.5, reference: E2023-L52
Mercury2.2703
Venus1.85763
Earth1.59193
Mars1.00041
Jupiter2.20662
Saturn6.47154
Uranus15.6376
Neptune27.1878

Observations

387 total observations over interval: 2002 10 11.22228 – 2023 06 10.218649
These data are available for download (format description).

Date (UT) J2000 RA J2000 Dec Magn Location Ref
2002 10 11.22228 02 02 57.18 +16 19 14.6 20.3   644 – Palomar Mountain/NEAT MPS 277658
2002 10 11.29228 02 02 53.77 +16 18 58.9 20.5   644 – Palomar Mountain/NEAT MPS 277658
2002 10 11.35793 02 02 50.57 +16 18 44.1 19.9   644 – Palomar Mountain/NEAT MPS 277658
2004 02 12.33245 09 52 40.28 +10 18 50.3 20.0 V 691 – Steward Observatory, Kitt Peak-Spacewatch MPS 100196
2004 02 12.36329 09 52 38.59 +10 18 57.5 20.2 V 691 – Steward Observatory, Kitt Peak-Spacewatch MPS 100196
2004 02 12.39089 09 52 37.07 +10 19 04.2 20.5 V 691 – Steward Observatory, Kitt Peak-Spacewatch MPS 100196
2004 02 17.28523 09 48 16.19 +10 38 34.9   704 – Lincoln Laboratory ETS, New Mexico MPS 407586
2004 02 17.29709 09 48 15.57 +10 38 38.1 20.2   704 – Lincoln Laboratory ETS, New Mexico MPS 100196
2004 02 17.30909 09 48 14.88 +10 38 41.9 20.2   704 – Lincoln Laboratory ETS, New Mexico MPS 100196
2004 02 17.32089 09 48 14.31 +10 38 43.3 20.1   704 – Lincoln Laboratory ETS, New Mexico MPS 100196
2006 09 27.13647 21 19 33.09 -13 01 16.5 20.9 V G96 – Mt. Lemmon Survey MPS 277658
2006 09 27.14444 21 19 32.91 -13 01 16.3 20.9 V G96 – Mt. Lemmon Survey MPS 277658
2006 09 27.15233 21 19 32.77 -13 01 17.4 21.1 V G96 – Mt. Lemmon Survey MPS 277659
2006 09 27.16036 21 19 32.66 -13 01 18.1 21.1 V G96 – Mt. Lemmon Survey MPS 277659
2006 10 21.11780 21 21 07.30 -13 02 37.2 21.1 V G96 – Mt. Lemmon Survey MPS 277659
2006 10 21.12235 21 21 07.41 -13 02 37.2 21.7 V G96 – Mt. Lemmon Survey MPS 277659
2006 10 21.12692 21 21 07.52 -13 02 36.9 21.1 V G96 – Mt. Lemmon Survey MPS 277659
2006 10 21.13142 21 21 07.63 -13 02 36.4 21.4 V G96 – Mt. Lemmon Survey MPS 277659
2007 11 01.42263 05 20 23.73 +25 14 34.1   691 – Steward Observatory, Kitt Peak-Spacewatch MPS 277659
2007 11 01.44030 05 20 23.40 +25 14 33.8   691 – Steward Observatory, Kitt Peak-Spacewatch MPS 277659
2007 11 01.45796 05 20 23.01 +25 14 33.4   691 – Steward Observatory, Kitt Peak-Spacewatch MPS 277659
2007 11 15.33594 05 13 08.85 +25 04 23.8   704 – Lincoln Laboratory ETS, New Mexico MPS 407586
2007 11 15.34844 05 13 08.36 +25 04 23.3   704 – Lincoln Laboratory ETS, New Mexico MPS 407586
2007 11 15.36095 05 13 07.72 +25 04 23.2   704 – Lincoln Laboratory ETS, New Mexico MPS 407586
2007 12 06.35427 04 54 21.81 +24 27 02.5 18.9 V G96 – Mt. Lemmon Survey MPS 277659
2007 12 06.35990 04 54 21.49 +24 27 02.0 18.8 V G96 – Mt. Lemmon Survey MPS 277659
2007 12 06.36540 04 54 21.13 +24 27 00.9 18.9 V G96 – Mt. Lemmon Survey MPS 277659
2007 12 06.37095 04 54 20.80 +24 27 00.1 19.1 V G96 – Mt. Lemmon Survey MPS 277659
2007 12 10.25605 04 50 29.76 +24 17 25.7 19.4   704 – Lincoln Laboratory ETS, New Mexico MPS 231370
2007 12 10.26893 04 50 28.98 +24 17 23.8 19.8   704 – Lincoln Laboratory ETS, New Mexico MPS 231370
2007 12 10.29478 04 50 27.41 +24 17 19.0 19.7   704 – Lincoln Laboratory ETS, New Mexico MPS 231370
2007 12 14.25441 04 46 36.43 +24 06 59.4 20.5   704 – Lincoln Laboratory ETS, New Mexico MPS 231370
2007 12 14.26733 04 46 35.58 +24 06 57.3 20.3   704 – Lincoln Laboratory ETS, New Mexico MPS 231370
2007 12 14.28044 04 46 34.83 +24 06 56.0 20.0   704 – Lincoln Laboratory ETS, New Mexico MPS 231370
2007 12 14.29336 04 46 34.09 +24 06 53.3 19.9   704 – Lincoln Laboratory ETS, New Mexico MPS 231370
2007 12 14.30628 04 46 33.35 +24 06 51.5 19.7   704 – Lincoln Laboratory ETS, New Mexico MPS 231370
2008 12 29.52020 12 19 18.98 -04 30 24.3 21.3 V 691 – Steward Observatory, Kitt Peak-Spacewatch MPS 271902
2008 12 29.53325 12 19 19.52 -04 30 28.7 21.3 V 691 – Steward Observatory, Kitt Peak-Spacewatch MPS 271902
2008 12 29.54605 12 19 19.99 -04 30 33.9 21.3 V 691 – Steward Observatory, Kitt Peak-Spacewatch MPS 271902
2009 01 02.51250 12 21 57.52 -04 51 49.5 21.8 V 691 – Steward Observatory, Kitt Peak-Spacewatch MPS 271902
2009 01 02.52534 12 21 58.05 -04 51 54.3 21.0 V 691 – Steward Observatory, Kitt Peak-Spacewatch MPS 271902
2009 01 02.53842 12 21 58.48 -04 51 56.9 21.0 V 691 – Steward Observatory, Kitt Peak-Spacewatch MPS 271902
2009 01 07.53536 12 24 52.67 -05 16 18.6 21.4 V 691 – Steward Observatory, Kitt Peak-Spacewatch MPS 272846
2009 01 07.54847 12 24 53.07 -05 16 22.2 21.2 V 691 – Steward Observatory, Kitt Peak-Spacewatch MPS 272846
2009 01 07.56157 12 24 53.47 -05 16 25.4 21.0 V 691 – Steward Observatory, Kitt Peak-Spacewatch MPS 272846
2009 03 03.37938 12 20 56.05 -05 55 34.3 20.4 V 691 – Steward Observatory, Kitt Peak-Spacewatch MPS 278766
2009 03 03.39703 12 20 55.33 -05 55 30.7 20.4 V 691 – Steward Observatory, Kitt Peak-Spacewatch MPS 278766
2009 03 03.41466 12 20 54.60 -05 55 26.8 20.5 V 691 – Steward Observatory, Kitt Peak-Spacewatch MPS 278766
2009 03 22.33235 12 06 16.45 -04 31 18.3 19.5 V G96 – Mt. Lemmon Survey MPS 281353
2009 03 22.33782 12 06 16.16 -04 31 16.4 19.8 V G96 – Mt. Lemmon Survey MPS 281353
2009 03 22.34330 12 06 15.87 -04 31 14.5 20.0 V G96 – Mt. Lemmon Survey MPS 281353
2009 03 22.34870 12 06 15.58 -04 31 13.0 19.9 V G96 – Mt. Lemmon Survey MPS 281353
2009 03 25.64663 12 03 32.33 -04 14 00.1 20.1 R D29 – Purple Mountain Observatory, XuYi Station MPS 281353
2009 03 25.66052 12 03 31.62 -04 13 57.0 20.1 R D29 – Purple Mountain Observatory, XuYi Station MPS 281353
2009 03 25.67715 12 03 30.82 -04 13 51.4 19.7 R D29 – Purple Mountain Observatory, XuYi Station MPS 281353
2009 03 25.68960 12 03 30.18 -04 13 47.3 20.2 R D29 – Purple Mountain Observatory, XuYi Station MPS 281353
2011 09 26.28019 00 02 54.16 +04 17 07.2 19.3 V 703 – Catalina Sky Survey MPS 394171
2011 09 26.28740 00 02 53.73 +04 17 05.1 19.4 V 703 – Catalina Sky Survey MPS 394171
2011 09 26.29456 00 02 53.41 +04 17 02.8 19.6 V 703 – Catalina Sky Survey MPS 394171
2011 09 26.30175 00 02 52.90 +04 16 59.5 18.7 V 703 – Catalina Sky Survey MPS 394171
2011 09 26.32381 00 02 51.90 +04 16 52.6 19.6 V G96 – Mt. Lemmon Survey MPS 394171
2011 09 26.33061 00 02 51.54 +04 16 50.6 19.7 V G96 – Mt. Lemmon Survey MPS 394171
2011 09 26.33746 00 02 51.18 +04 16 48.4 19.8 V G96 – Mt. Lemmon Survey MPS 394171
2011 09 26.34429 00 02 50.85 +04 16 46.3 19.9 V G96 – Mt. Lemmon Survey MPS 394171
2011 09 27.23695 00 02 07.18 +04 12 09.6 19.4   704 – Lincoln Laboratory ETS, New Mexico MPS 394171
2011 09 27.24963 00 02 06.49 +04 12 06.1 19.3   704 – Lincoln Laboratory ETS, New Mexico MPS 394171
2011 09 27.26236 00 02 05.83 +04 12 03.0 19.5   704 – Lincoln Laboratory ETS, New Mexico MPS 394171
2012 11 13.46005 08 25 14.26 +19 18 53.1 21.0 V G96 – Mt. Lemmon Survey MPS 443279
2012 11 13.46700 08 25 14.44 +19 18 51.4 21.6 V G96 – Mt. Lemmon Survey MPS 443279
2012 11 13.47399 08 25 14.59 +19 18 50.8 21.4 V G96 – Mt. Lemmon Survey MPS 443279
2012 11 13.48101 08 25 14.88 +19 18 50.1 20.9 V G96 – Mt. Lemmon Survey MPS 443279
2012 11 15.44221 08 26 11.72 +19 14 08.1 21.2 V G96 – Mt. Lemmon Survey MPS 443279
2012 11 15.44588 08 26 11.83 +19 14 07.8 21.4 V G96 – Mt. Lemmon Survey MPS 443279
2012 11 15.44962 08 26 11.94 +19 14 07.0 20.6 V G96 – Mt. Lemmon Survey MPS 443279
2012 11 15.45336 08 26 12.04 +19 14 06.6 21.1 V G96 – Mt. Lemmon Survey MPS 443279
2012 12 13.40107 08 28 19.62 +18 42 36.3 21.0 V 691 – Steward Observatory, Kitt Peak-Spacewatch MPS 447645
2012 12 13.42345 08 28 19.08 +18 42 36.4 21.2 V 691 – Steward Observatory, Kitt Peak-Spacewatch MPS 447645
2012 12 13.44183 08 28 18.68 +18 42 36.4 20.7 V 691 – Steward Observatory, Kitt Peak-Spacewatch MPS 447645
2013 01 05.35042 08 14 03.01 +19 07 05.3 20.1 V G96 – Mt. Lemmon Survey MPS 450822
2013 01 05.35686 08 14 02.68 +19 07 06.0 20.1 V G96 – Mt. Lemmon Survey MPS 450822
2013 01 05.36279 08 14 02.32 +19 07 06.8 20.5 V G96 – Mt. Lemmon Survey MPS 450822
2013 01 05.36867 08 14 02.04 +19 07 07.2 20.2 V G96 – Mt. Lemmon Survey MPS 450822
2013 01 17.48021 08 02 42.971 +19 29 59.36 19.6 w F51 – Pan-STARRS 1, Haleakala MPS 452179
2013 01 17.51085 08 02 41.125 +19 30 02.82 19.4 w F51 – Pan-STARRS 1, Haleakala MPS 452179
2013 01 17.52622 08 02 40.200 +19 30 04.48 19.3 w F51 – Pan-STARRS 1, Haleakala MPS 452179
2013 01 18.64574 08 01 35.29 +19 32 13.1 19.4 R D29 – Purple Mountain Observatory, XuYi Station MPS 453134
2013 01 18.64679 08 01 35.23 +19 32 12.8 19.6 R D29 – Purple Mountain Observatory, XuYi Station MPS 453134
